[[{"header":{"parameterUnit":"m.s-1","parameterCategory":1,"la1":30.2991,"la2":30.254,"lo1":-89.0895,"lo2":-89.0444,"dy":0.0017,"dx":0.0017,"nx":28,"ny":28,"refTime":"2023-08-23T03:00:00:Z","depth":0,"parameterNumber":2,"parameterNumberName":"U-component_of_WINDS"},"data":[0,0,0,0,0,0,0,0,0,0,0,0,0,0,0,0,0,0,0,0,0,0,0,0,0,0,0,0,0,0,0,0,0,0,0,0,0,0,0,0,0,0,0,0,0,0,0,0,0,0,0,0,0,0,0,0,0,0,-1.4079,-1.408,0,-1.4126,-1.4126,-1.4127,-1.4132,-1.4132,-1.4131,-1.4131,-1.4181,-1.4183,-1.4185,0,0,0,0,0,0,0,0,0,0,0,0,0,-1.3999,-1.4,-1.4079,-1.408,-1.408,-1.4125,-1.4126,-1.4127,-1.4132,-1.4132,-1.4131,-1.4131,-1.4181,-1.4183,-1.4185,0,0,0,0,0,0,0,0,0,0,0,0,0,-1.4038,-1.4001,-1.4079,-1.4088,-1.409,-1.4125,-1.4126,-1.4127,-1.4132,-1.4132,-1.4131,-1.413,-1.418,-1.4183,-1.4185,-1.4216,0,0,-1.4194,-1.4195,0,0,0,0,0,0,0,0,-1.4036,-1.4041,-1.4086,-1.4088,-1.4089,-1.4122,-1.4116,-1.4157,-1.4132,-1.4116,-1.4131,-1.413,-1.4163,-1.4167,-1.4177,-1.4218,-1.4221,-1.4194,-1.4196,-1.4197,-1.4197,0,0,0,0,0,0,0,-1.4033,-1.4039,-1.4098,-1.4087,-1.4089,-1.4091,-1.4096,-1.4124,-1.4143,-1.4118,-1.4118,-1.4123,-1.4163,-1.4174,-1.4178,-1.4221,-1.4194,-1.4196,-1.4198,-1.4199,-1.4292,-1.4292,0,0,0,0,0,0,-1.4028,-1.4037,-1.4096,-1.4099,-1.406,-1.4093,-1.4099,-1.4112,-1.4143,-1.4146,-1.4124,-1.4123,-1.417,-1.4175,-1.418,-1.4218,-1.4197,-1.4199,-1.4201,-1.4291,-1.4292,-1.4293,0,0,0,0,0,0,-1.4027,-1.4034,-1.4094,-1.4068,-1.4076,-1.4096,-1.4111,-1.4114,-1.4125,-1.4147,-1.4151,-1.4132,-1.417,-1.4176,-1.4207,-1.422,-1.42,-1.4203,-1.429,-1.4291,-1.4292,-1.4295,0,0,0,0,0,0,-1.4024,-1.4033,-1.4044,-1.4068,-1.4077,-1.4119,-1.4112,-1.4115,-1.4129,-1.4129,-1.4155,-1.4159,-1.417,-1.4203,-1.421,-1.4224,-1.4205,-1.4289,-1.429,-1.4292,-1.4294,-1.4296,-1.4298,0,0,0,0,0,-1.4021,-1.4043,-1.4044,-1.4051,-1.4091,-1.412,-1.4125,-1.4136,-1.413,-1.4142,-1.4156,-1.4158,-1.4218,-1.4206,-1.4214,-1.4229,-1.4288,-1.429,-1.4292,-1.4293,-1.4296,-1.4298,0,0,0,0,0,0,-1.4021,-1.4047,-1.4048,-1.4078,-1.4097,-1.4121,-1.4136,-1.4139,-1.416,-1.4159,-1.4173,-1.4179,-1.4209,-1.4222,-1.4209,-1.426,-1.4252,-1.4256,-1.4251,-1.4254,-1.4256,-1.4252,-1.4207,0,0,0,0,0,-1.4024,-1.4044,-1.4066,-1.4091,-1.41,-1.4116,-1.4129,-1.4136,-1.4156,-1.4164,-1.4181,-1.4202,-1.4225,-1.424,-1.4263,-1.4296,-1.4302,-1.431,-1.4312,-1.4314,-1.4317,-1.4336,-1.434,-1.4299,-1.4299,-1.4299,0,0,-1.4031,-1.4048,-1.406,-1.4091,-1.4106,-1.4128,-1.4123,-1.4146,-1.4162,-1.4168,-1.4198,-1.4211,-1.4235,-1.4267,-1.4282,-1.4279,-1.433,-1.4316,-1.4317,-1.432,-1.4339,-1.4342,-1.4346,-1.43,-1.43,-1.43,0,0,-1.4055,-1.4069,-1.4091,-1.4107,-1.4129,-1.414,-1.4146,-1.417,-1.4178,-1.4208,-1.4213,-1.4234,-1.4274,-1.4291,-1.4304,-1.4336,-1.4339,-1.4343,-1.4355,-1.4373,-1.4377,-1.4379,-1.4391,-1.4395,-1.4346,-1.4346,-1.4346,0,-1.4061,-1.4093,-1.4103,-1.4126,-1.414,-1.4145,-1.4168,-1.4183,-1.4213,-1.4223,-1.4218,-1.4269,-1.4285,-1.4322,-1.433,-1.4341,-1.4348,-1.434,-1.4375,-1.4378,-1.4381,-1.4392,-1.4397,-1.4346,-1.4346,-1.4346,-1.4346,0,-1.41,-1.4122,-1.4137,-1.4164,-1.418,-1.4203,-1.4218,-1.4233,-1.4239,-1.4251,-1.4282,-1.4302,-1.4329,-1.4338,-1.4344,-1.4376,-1.4374,-1.4372,-1.4364,-1.4385,-1.4396,-1.44,-1.4347,-1.4347,-1.4347,-1.4346,0,0,-1.4125,-1.4157,-1.4162,-1.4175,-1.4201,-1.4219,-1.4243,-1.4268,-1.4281,-1.4302,-1.4323,-1.4357,-1.4356,-1.4371,-1.438,-1.4396,-1.442,-1.4393,-1.4393,-1.4397,-1.4458,-1.4459,-1.4464,-1.4422,-1.4423,-1.4424,-1.4456,0,-1.4152,-1.4193,-1.4203,-1.4239,-1.426,-1.4266,-1.4287,-1.4305,-1.4317,-1.4338,-1.4352,-1.4376,-1.4372,-1.4382,-1.4398,-1.4414,-1.4433,-1.4412,-1.4443,-1.4444,-1.4437,-1.4469,-1.447,-1.4499,-1.446,-1.4461,-1.4461,0,-1.4189,-1.4209,-1.4246,-1.427,-1.4279,-1.4298,-1.4322,-1.4342,-1.4364,-1.4371,-1.4389,-1.4396,-1.4422,-1.4413,-1.4451,-1.4436,-1.445,-1.446,-1.4461,-1.4465,-1.4454,-1.4474,-1.4509,-1.4513,-1.4468,-1.4468,-1.4467,0,-1.4204,-1.424,-1.4268,-1.4278,-1.4306,-1.4319,-1.4332,-1.4353,-1.4368,-1.439,-1.44,-1.4425,-1.4439,-1.4459,-1.4473,-1.4465,-1.451,-1.4502,-1.4518,-1.4518,-1.4527,-1.4526,-1.4565,-1.4536,-1.4536,-1.4536,-1.4535,0,-1.4233,-1.4256,-1.4274,-1.4291,-1.4318,-1.433,-1.4356,-1.4369,-1.4388,-1.4408,-1.4415,-1.4435,-1.4452,-1.4474,-1.4485,-1.4515,-1.4521,-1.4529,-1.4532,-1.4528,-1.4527,-1.4538,-1.4536,-1.4537,-1.4536,-1.4536,-1.4536,0,-1.4254,-1.4267,-1.4297,-1.4321,-1.4328,-1.4346,-1.4367,-1.4385,-1.4397,-1.4423,-1.443,-1.4449,-1.4476,-1.4492,-1.4525,-1.4533,-1.4566,-1.4568,-1.4558,-1.4559,-1.4575,-1.4573,-1.4622,-1.4629,-1.4594,-1.4595,-1.4595,0,-1.4272,-1.429,-1.4315,-1.4329,-1.4341,-1.4363,-1.4378,-1.4391,-1.4407,-1.4433,-1.4448,-1.4474,-1.4496,-1.4539,-1.4557,-1.4583,-1.4586,-1.4601,-1.459,-1.4586,-1.4587,-1.4586,-1.4588,-1.4603,-1.4603,-1.4603,-1.4604,0,-1.4303,-1.4308,-1.4329,-1.4352,-1.437,-1.4389,-1.4409,-1.442,-1.4436,-1.4454,-1.448,-1.4497,-1.4531,-1.4558,-1.4586,-1.46,-1.4605,-1.4607,-1.4612,-1.4609,-1.4603,-1.4607,-1.4564,-1.4606,-1.4606,-1.4605,-1.4605,-1.4605,-1.4323,-1.4339,-1.436,-1.4383,-1.4399,-1.4416,-1.4434,-1.4448,-1.447,-1.4498,-1.4505,-1.4533,-1.4556,-1.4593,-1.4608,-1.4631,-1.4629,-1.4637,-1.4639,-1.464,-1.4641,-1.4599,-1.4637,-1.4637,-1.4636,-1.4636,-1.4636,0,-1.4355,-1.4368,-1.4389,-1.4416,-1.4434,-1.4436,-1.4457,-1.4473,-1.4497,-1.4517,-1.4539,-1.457,-1.4596,-1.4616,-1.4643,-1.4658,-1.4661,-1.4665,-1.4664,-1.4668,-1.4641,-1.4634,-1.4662,-1.4662,-1.4662,-1.4662,-1.4662,-1.4662,-1.4374,-1.4401,-1.4409,-1.4445,-1.4459,-1.4485,-1.4497,-1.4515,-1.4531,-1.4564,-1.4586,-1.4598,-1.4619,-1.4648,-1.4672,-1.4678,-1.4688,-1.4691,-1.4697,-1.4672,-1.4669,-1.4667,-1.466,-1.4693,-1.4693,-1.4722,-1.4722,-1.4722]},{"header":{"parameterUnit":"m.s-1","parameterCategory":1,"la1":30.2991,"la2":30.254,"lo1":-89.0895,"lo2":-89.0444,"dy":0.0017,"dx":0.0017,"nx":28,"ny":28,"refTime":"2023-08-23T03:00:00:Z","depth":0,"parameterNumber":3,"parameterNumberName":"V-component_of_WINDS"},"data":[0,0,0,0,0,0,0,0,0,0,0,0,0,0,0,0,0,0,0,0,0,0,0,0,0,0,0,0,0,0,0,0,0,0,0,0,0,0,0,0,0,0,0,0,0,0,0,0,0,0,0,0,0,0,0,0,0,0,3.8901,3.8901,0,3.8871,3.8871,3.8871,3.8835,3.8834,3.8834,3.8833,3.88,3.88,3.8799,0,0,0,0,0,0,0,0,0,0,0,0,0,3.8926,3.8926,3.8901,3.8901,3.89,3.8871,3.8871,3.887,3.8835,3.8834,3.8833,3.8833,3.88,3.88,3.8799,0,0,0,0,0,0,0,0,0,0,0,0,0,3.8907,3.8925,3.8901,3.8879,3.8877,3.8871,3.8871,3.887,3.8835,3.8834,3.8833,3.8833,3.88,3.88,3.8799,3.8812,0,0,3.8798,3.8797,0,0,0,0,0,0,0,0,3.8908,3.8907,3.8883,3.8881,3.8878,3.8856,3.8867,3.8851,3.8835,3.8851,3.8833,3.8832,3.8819,3.8817,3.8813,3.8811,3.8809,3.8797,3.8797,3.8797,3.8797,0,0,0,0,0,0,0,3.891,3.8908,3.8889,3.8882,3.888,3.887,3.8867,3.8864,3.884,3.8849,3.8847,3.8844,3.8818,3.8814,3.8812,3.8809,3.8797,3.8797,3.8797,3.8796,3.8816,3.8816,0,0,0,0,0,0,3.8915,3.8909,3.889,3.8888,3.8892,3.8871,3.8867,3.8864,3.884,3.8835,3.8845,3.8842,3.8815,3.8813,3.8811,3.8824,3.8797,3.8796,3.8796,3.8815,3.8816,3.8817,0,0,0,0,0,0,3.8915,3.8913,3.8891,3.8898,3.8894,3.8871,3.8868,3.8864,3.886,3.8836,3.8831,3.8845,3.8814,3.8812,3.8812,3.8823,3.8796,3.8796,3.8814,3.8815,3.8816,3.8852,0,0,0,0,0,0,3.8916,3.8914,3.8919,3.8898,3.8894,3.8894,3.8869,3.8864,3.8859,3.8856,3.8835,3.8831,3.8813,3.8813,3.8812,3.8821,3.8795,3.8813,3.8814,3.8816,3.8849,3.8854,3.8858,0,0,0,0,0,3.8917,3.8929,3.8919,3.8917,3.89,3.8895,3.8892,3.8872,3.886,3.8865,3.885,3.8832,3.8822,3.8814,3.8812,3.8821,3.8812,3.8814,3.8816,3.8848,3.8853,3.8858,0,0,0,0,0,0,3.8951,3.8926,3.8915,3.8921,3.891,3.8889,3.8894,3.8879,3.8871,3.8868,3.8843,3.8839,3.8842,3.8832,3.8823,3.8833,3.8814,3.8816,3.8839,3.8844,3.8849,3.8851,3.8795,0,0,0,0,0,3.8959,3.8957,3.8936,3.8943,3.8939,3.8918,3.8914,3.89,3.8888,3.8883,3.8868,3.8856,3.885,3.8847,3.884,3.8848,3.8843,3.8854,3.8858,3.8862,3.8863,3.8866,3.8871,3.8823,3.8823,3.8823,0,0,3.8976,3.8962,3.8962,3.895,3.894,3.8938,3.8914,3.8913,3.8911,3.8882,3.8882,3.8871,3.8856,3.8861,3.8862,3.8852,3.8875,3.8864,3.8867,3.8866,3.8869,3.8873,3.8877,3.8824,3.8824,3.8824,0,0,3.9005,3.8995,3.9,3.8991,3.8977,3.8963,3.8964,3.8945,3.8937,3.8937,3.8915,3.8913,3.8903,3.8894,3.8887,3.8915,3.8898,3.8913,3.8935,3.8938,3.8942,3.8945,3.8955,3.8958,3.8915,3.8915,3.8915,0,3.9028,3.9025,3.9005,3.9005,3.9,3.8975,3.898,3.8972,3.8956,3.8953,3.8942,3.8931,3.8919,3.8921,3.8927,3.8923,3.8924,3.8915,3.8943,3.8946,3.8949,3.8958,3.8961,3.8917,3.8917,3.8916,3.8916,0,3.9053,3.9051,3.9057,3.9043,3.9039,3.9042,3.9022,3.9019,3.9006,3.8993,3.8993,3.8978,3.8968,3.8968,3.8954,3.8968,3.8962,3.8948,3.8929,3.8956,3.8963,3.8967,3.892,3.8919,3.8918,3.8918,0,0,3.9102,3.9078,3.908,3.9073,3.9056,3.9054,3.9056,3.9047,3.9046,3.9036,3.9037,3.903,3.9017,3.901,3.8995,3.8998,3.902,3.8983,3.8983,3.899,3.9034,3.9045,3.9049,3.901,3.901,3.9011,3.9035,0,3.9128,3.913,3.9112,3.9118,3.9117,3.9093,3.9095,3.9084,3.9072,3.9069,3.9055,3.9051,3.9034,3.903,3.9032,3.9017,3.9029,3.9015,3.9009,3.9009,3.9013,3.9053,3.9064,3.9088,3.9038,3.9039,3.9039,0,3.9158,3.9151,3.9157,3.914,3.9139,3.9141,3.9131,3.9128,3.9116,3.9107,3.91,3.9083,3.9083,3.9066,3.9065,3.9057,3.9053,3.9046,3.9046,3.9044,3.9025,3.9052,3.9095,3.9099,3.9044,3.9043,3.9043,0,3.9192,3.9184,3.9187,3.9183,3.9163,3.9165,3.9157,3.9143,3.9139,3.9131,3.9128,3.912,3.9115,3.9109,3.909,3.908,3.9092,3.9073,3.9084,3.9084,3.9087,3.9087,3.913,3.9086,3.9086,3.9086,3.9085,0,3.9223,3.9228,3.9203,3.9204,3.9209,3.9189,3.9194,3.9183,3.9172,3.9171,3.915,3.915,3.9126,3.9122,3.9108,3.9109,3.9107,3.9099,3.9095,3.9101,3.9102,3.9098,3.9095,3.9086,3.9086,3.9086,3.9086,0,3.9262,3.9245,3.9247,3.9229,3.9224,3.9229,3.9213,3.9213,3.9201,3.92,3.9198,3.9178,3.9173,3.9154,3.9144,3.9134,3.914,3.9133,3.9145,3.9142,3.9154,3.9153,3.9195,3.92,3.9153,3.9154,3.9154,0,3.9282,3.9285,3.9268,3.9266,3.9259,3.9257,3.9253,3.9233,3.923,3.9216,3.9218,3.9212,3.9206,3.9198,3.9182,3.9175,3.9166,3.9182,3.9165,3.9171,3.9166,3.9166,3.9166,3.9185,3.9186,3.9186,3.9187,0,3.932,3.9312,3.9307,3.93,3.9296,3.929,3.9282,3.9281,3.9259,3.9256,3.9252,3.9247,3.9237,3.9231,3.9221,3.9211,3.9195,3.9193,3.9195,3.92,3.9207,3.9203,3.9154,3.9191,3.9191,3.9191,3.919,3.919,3.935,3.9352,3.934,3.9336,3.9328,3.9321,3.9321,3.9309,3.9304,3.9295,3.9284,3.9281,3.9268,3.9253,3.9245,3.9242,3.9233,3.9236,3.9237,3.9237,3.924,3.9208,3.924,3.924,3.924,3.9239,3.9239,0,3.9386,3.9377,3.9374,3.9364,3.9361,3.9347,3.9338,3.9335,3.9333,3.9323,3.9318,3.9312,3.9306,3.929,3.9282,3.9283,3.9275,3.9281,3.9281,3.9279,3.9249,3.9248,3.9287,3.9287,3.9287,3.9287,3.9287,3.9287,3.9404,3.9407,3.9398,3.9396,3.9387,3.9384,3.938,3.9374,3.9366,3.9361,3.9356,3.9346,3.9334,3.9325,3.9319,3.9314,3.9312,3.932,3.9313,3.9285,3.9281,3.9276,3.9275,3.932,3.932,3.9343,3.9344,3.9344]}]]